User: anonymous   Login
Location: Prague
(50.0830°N, 14.4670°E)
Time: 13:31:15
(UTC+01:00)
Language:

KKS-1 - Orbit

View from above orbital plane
View from above orbital plane
View from above satellite
View from above satellite

Ground track
Ground track

The orbit data is extracted from the following two-line orbital elements,

1 33499U 09002H   21340.15430391  .00000250  00000-0  44429-4 0  9999
2 33499  98.2421 213.6994 0008366 206.0685 154.0103 14.75749333692164
Epoch (UTC): 06 December 2021 03:42:11
Eccentricity: 0.0008366
inclination: 98.2421°
perigee height: 637 km
apogee height: 648 km
right ascension of ascending node: 213.6994°
argument of perigee: 206.0685°
revolutions per day: 14.75749333
mean anomaly at epoch: 154.0103°
orbit number at epoch: 69216

The dashed part of the orbit path shows where the satellite is in the earth's shadow,  

DLR